contact:dominique.lefevre@mio.osupytheas.fr, maurice.libes@osupytheas.fr, didier.mallarino@osupytheas.fr
Project:EMSO http://www.emso-fr.org/EMSO-France
Depth: 2436.0 m
Title:EMSO Ligure Ouest : Data MII capteur MICROCAT
DateTime_Computer,Latitude,Longitude,Temperature,Conductivity,Pressure,DateTime_Instrument
DateTime_Computer,Latitude,Longitude,degC,S m-1,dbar,DateTime_Instrument
2023-01-03T12:33:08Z,42.805,6.029,13.3017,4.60073,2470.507,2023-1-03T14:39:15Z
2023-01-03T12:36:11Z,42.805,6.029,13.3019,4.60081,2470.507,2023-1-03T14:42:18Z
2023-01-03T12:39:14Z,42.805,6.029,13.3015,4.60082,2470.483,2023-1-03T14:45:21Z
2023-01-03T12:42:17Z,42.805,6.029,13.3016,4.60080,2470.483,2023-1-03T14:48:24Z
2023-01-03T12:45:20Z,42.805,6.029,13.3019,4.60081,2470.474,2023-1-03T14:51:27Z
2023-01-03T12:48:23Z,42.805,6.029,13.3015,4.60109,2470.483,2023-1-03T14:54:30Z
2023-01-03T12:51:26Z,42.805,6.029,13.3018,4.60084,2470.46,2023-1-03T14:57:34Z
2023-01-03T12:54:30Z,42.805,6.029,13.3017,4.60081,2470.483,2023-1-03T15:00:37Z
2023-01-03T12:57:33Z,42.805,6.029,13.3025,4.60084,2470.483,2023-1-03T15:03:40Z
2023-01-03T13:00:36Z,42.805,6.029,13.3014,4.60083,2470.483,2023-1-03T15:06:43Z
2023-01-03T13:03:39Z,42.805,6.029,13.3018,4.60081,2470.483,2023-1-03T15:09:46Z
2023-01-03T13:06:42Z,42.805,6.029,13.3021,4.60089,2470.497,2023-1-03T15:12:49Z
2023-01-03T13:09:45Z,42.805,6.029,13.3024,4.60097,2470.474,2023-1-03T15:15:52Z
2023-01-03T13:12:48Z,42.805,6.029,13.3026,4.60097,2470.483,2023-1-03T15:18:55Z
2023-01-03T13:15:51Z,42.805,6.029,13.3023,4.60089,2470.483,2023-1-03T15:21:58Z
2023-01-03T13:18:54Z,42.805,6.029,13.3019,4.60082,2470.52,2023-1-03T15:25:01Z
2023-01-03T13:21:57Z,42.805,6.029,13.3026,4.60103,2470.46,2023-1-03T15:28:04Z
2023-01-03T13:25:00Z,42.805,6.029,13.3019,4.60090,2470.507,2023-1-03T15:31:07Z
2023-01-03T13:28:03Z,42.805,6.029,13.3017,4.60087,2470.507,2023-1-03T15:34:11Z
2023-01-03T13:31:07Z,42.805,6.029,13.3024,4.60089,2470.507,2023-1-03T15:37:14Z
2023-01-03T13:34:10Z,42.805,6.029,13.3022,4.60083,2470.507,2023-1-03T15:40:17Z
2023-01-03T13:37:13Z,42.805,6.029,13.3022,4.60092,2470.52,2023-1-03T15:43:20Z
2023-01-03T13:40:16Z,42.805,6.029,13.3018,4.60087,2470.474,2023-1-03T15:46:23Z
2023-01-03T13:43:19Z,42.805,6.029,13.3025,4.60092,2470.46,2023-1-03T15:49:26Z
2023-01-03T13:46:22Z,42.805,6.029,13.3021,4.60084,2470.52,2023-1-03T15:52:29Z
2023-01-03T13:49:25Z,42.805,6.029,13.3021,4.60093,2470.483,2023-1-03T15:55:32Z
2023-01-03T13:52:28Z,42.805,6.029,13.3021,4.60082,2470.483,2023-1-03T15:58:35Z
2023-01-03T13:55:31Z,42.805,6.029,13.3024,4.60085,2470.52,2023-1-03T16:01:38Z
2023-01-03T13:58:34Z,42.805,6.029,13.3025,4.60090,2470.497,2023-1-03T16:04:41Z
2023-01-03T14:01:37Z,42.805,6.029,13.3026,4.60088,2470.483,2023-1-03T16:07:45Z
2023-01-03T14:04:41Z,42.805,6.029,13.3026,4.60087,2470.507,2023-1-03T16:10:48Z
2023-01-03T14:07:44Z,42.805,6.029,13.3020,4.60095,2470.46,2023-1-03T16:13:51Z
2023-01-03T14:10:47Z,42.805,6.029,13.3030,4.60099,2470.483,2023-1-03T16:16:54Z
2023-01-03T14:13:50Z,42.805,6.029,13.3029,4.60090,2470.507,2023-1-03T16:19:57Z
2023-01-03T14:16:53Z,42.805,6.029,13.3023,4.60107,2470.497,2023-1-03T16:23:00Z
2023-01-03T14:19:56Z,42.805,6.029,13.3026,4.60089,2470.53,2023-1-03T16:26:03Z
2023-01-03T14:22:59Z,42.805,6.029,13.3019,4.60085,2470.544,2023-1-03T16:29:06Z
2023-01-03T14:26:02Z,42.805,6.029,13.3028,4.60097,2470.544,2023-1-03T16:32:09Z
2023-01-03T14:29:05Z,42.805,6.029,13.3027,4.60107,2470.53,2023-1-03T16:35:12Z
2023-01-03T14:32:08Z,42.805,6.029,13.3024,4.60102,2470.544,2023-1-03T16:38:15Z
2023-01-03T14:35:11Z,42.805,6.029,13.3015,4.60080,2470.483,2023-1-03T16:41:19Z
2023-01-03T14:38:14Z,42.805,6.029,13.3025,4.60085,2470.483,2023-1-03T16:44:22Z
2023-01-03T14:41:18Z,42.805,6.029,13.3026,4.60087,2470.53,2023-1-03T16:47:25Z
2023-01-03T14:44:21Z,42.805,6.029,13.3028,4.60091,2470.53,2023-1-03T16:50:28Z
2023-01-03T14:47:24Z,42.805,6.029,13.3035,4.60095,2470.52,2023-1-03T16:53:31Z
2023-01-03T14:50:27Z,42.805,6.029,13.3024,4.60089,2470.553,2023-1-03T16:56:34Z
2023-01-03T14:53:30Z,42.805,6.029,13.3029,4.60108,2470.53,2023-1-03T16:59:37Z
2023-01-03T14:56:33Z,42.805,6.029,13.3025,4.60085,2470.52,2023-1-03T17:02:40Z
2023-01-03T14:59:36Z,42.805,6.029,13.3026,4.60093,2470.577,2023-1-03T17:05:43Z
2023-01-03T15:02:39Z,42.805,6.029,13.3021,4.60086,2470.553,2023-1-03T17:08:46Z
2023-01-03T15:05:42Z,42.805,6.029,13.3024,4.60088,2470.53,2023-1-03T17:11:49Z
2023-01-03T15:08:45Z,42.805,6.029,13.3021,4.60091,2470.553,2023-1-03T17:14:53Z
2023-01-03T15:11:48Z,42.805,6.029,13.3024,4.60097,2470.53,2023-1-03T17:17:56Z
2023-01-03T15:14:52Z,42.805,6.029,13.3019,4.60082,2470.6,2023-1-03T17:20:59Z
2023-01-03T15:17:55Z,42.805,6.029,13.3019,4.60078,2470.591,2023-1-03T17:24:02Z
2023-01-03T15:20:58Z,42.805,6.029,13.3022,4.60084,2470.553,2023-1-03T17:27:05Z
2023-01-03T15:24:01Z,42.805,6.029,13.3022,4.60084,2470.553,2023-1-03T17:30:08Z
2023-01-03T15:27:04Z,42.805,6.029,13.3018,4.60087,2470.553,2023-1-03T17:33:11Z
2023-01-03T15:30:07Z,42.805,6.029,13.3032,4.60090,2470.553,2023-1-03T17:36:14Z
2023-01-03T15:33:10Z,42.805,6.029,13.3034,4.60116,2470.553,2023-1-03T17:39:17Z
2023-01-03T15:36:13Z,42.805,6.029,13.3027,4.60111,2470.53,2023-1-03T17:42:20Z
2023-01-03T15:39:16Z,42.805,6.029,13.3026,4.60093,2470.577,2023-1-03T17:45:23Z
2023-01-03T15:42:19Z,42.805,6.029,13.3031,4.60093,2470.539,2023-1-03T17:48:27Z
2023-01-03T15:45:22Z,42.805,6.029,13.3026,4.60089,2470.577,2023-1-03T17:51:30Z
2023-01-03T15:48:25Z,42.805,6.029,13.3025,4.60088,2470.591,2023-1-03T17:54:33Z
2023-01-03T15:51:29Z,42.805,6.029,13.3026,4.60092,2470.567,2023-1-03T17:57:36Z
2023-01-03T15:54:32Z,42.805,6.029,13.3020,4.60086,2470.591,2023-1-03T18:00:39Z
2023-01-03T15:57:35Z,42.805,6.029,13.3023,4.60092,2470.577,2023-1-03T18:03:42Z
2023-01-03T16:00:38Z,42.805,6.029,13.3024,4.60113,2470.591,2023-1-03T18:06:45Z
2023-01-03T16:03:41Z,42.805,6.029,13.3025,4.60102,2470.577,2023-1-03T18:09:48Z
2023-01-03T16:06:44Z,42.805,6.029,13.3020,4.60099,2470.577,2023-1-03T18:12:51Z
2023-01-03T16:09:47Z,42.805,6.029,13.3025,4.60099,2470.591,2023-1-03T18:15:54Z
2023-01-03T16:12:50Z,42.805,6.029,13.3022,4.60108,2470.577,2023-1-03T18:18:57Z
2023-01-03T16:15:53Z,42.805,6.029,13.3025,4.60098,2470.6,2023-1-03T18:22:00Z
2023-01-03T16:18:56Z,42.805,6.029,13.3019,4.60083,2470.591,2023-1-03T18:25:04Z
2023-01-03T16:21:59Z,42.805,6.029,13.3027,4.60087,2470.6,2023-1-03T18:28:07Z
2023-01-03T16:25:03Z,42.805,6.029,13.3024,4.60082,2470.577,2023-1-03T18:31:10Z
2023-01-03T16:28:06Z,42.805,6.029,13.3022,4.60084,2470.6,2023-1-03T18:34:13Z
2023-01-03T16:31:09Z,42.805,6.029,13.3017,4.60082,2470.591,2023-1-03T18:37:16Z
2023-01-03T16:34:12Z,42.805,6.029,13.3021,4.60086,2470.577,2023-1-03T18:40:19Z
2023-01-03T16:37:15Z,42.805,6.029,13.3027,4.60091,2470.591,2023-1-03T18:43:22Z
2023-01-03T16:40:18Z,42.805,6.029,13.3024,4.60087,2470.553,2023-1-03T18:46:25Z
2023-01-03T16:43:21Z,42.805,6.029,13.3032,4.60094,2470.577,2023-1-03T18:49:28Z
2023-01-03T16:46:24Z,42.805,6.029,13.3016,4.60097,2470.553,2023-1-03T18:52:31Z
2023-01-03T16:49:27Z,42.805,6.029,13.3019,4.60089,2470.591,2023-1-03T18:55:34Z
2023-01-03T16:52:30Z,42.805,6.029,13.3028,4.60087,2470.577,2023-1-03T18:58:38Z
2023-01-03T16:55:33Z,42.805,6.029,13.3020,4.60085,2470.553,2023-1-03T19:01:41Z
2023-01-03T16:58:36Z,42.805,6.029,13.3026,4.60101,2470.567,2023-1-03T19:04:44Z
2023-01-03T17:01:40Z,42.805,6.029,13.3021,4.60086,2470.577,2023-1-03T19:07:47Z
2023-01-03T17:04:43Z,42.805,6.029,13.3031,4.60100,2470.624,2023-1-03T19:10:50Z
2023-01-03T17:07:46Z,42.805,6.029,13.3020,4.60094,2470.577,2023-1-03T19:13:53Z
2023-01-03T17:10:49Z,42.805,6.029,13.3021,4.60081,2470.591,2023-1-03T19:16:56Z
2023-01-03T17:13:52Z,42.805,6.029,13.3024,4.60084,2470.577,2023-1-03T19:19:59Z
2023-01-03T17:16:55Z,42.805,6.029,13.3024,4.60107,2470.6,2023-1-03T19:23:02Z
2023-01-03T17:19:58Z,42.805,6.029,13.3028,4.60086,2470.6,2023-1-03T19:26:05Z
2023-01-03T17:23:01Z,42.805,6.029,13.3021,4.60097,2470.591,2023-1-03T19:29:08Z
2023-01-03T17:26:04Z,42.805,6.029,13.3028,4.60090,2470.614,2023-1-03T19:32:11Z
2023-01-03T17:29:07Z,42.805,6.029,13.3025,4.60097,2470.591,2023-1-03T19:35:15Z
2023-01-03T17:32:10Z,42.805,6.029,13.3019,4.60092,2470.591,2023-1-03T19:38:18Z
2023-01-03T17:35:13Z,42.805,6.029,13.3022,4.60087,2470.614,2023-1-03T19:41:21Z
2023-01-03T17:38:17Z,42.805,6.029,13.3029,4.60118,2470.577,2023-1-03T19:44:24Z
2023-01-03T17:41:20Z,42.805,6.029,13.3031,4.60107,2470.6,2023-1-03T19:47:27Z
2023-01-03T17:44:23Z,42.805,6.029,13.3032,4.60119,2470.624,2023-1-03T19:50:30Z
2023-01-03T17:47:26Z,42.805,6.029,13.3024,4.60088,2470.591,2023-1-03T19:53:33Z
2023-01-03T17:50:29Z,42.805,6.029,13.3030,4.60113,2470.614,2023-1-03T19:56:36Z
2023-01-03T17:53:32Z,42.805,6.029,13.3031,4.60123,2470.624,2023-1-03T19:59:39Z
2023-01-03T17:56:35Z,42.805,6.029,13.3022,4.60114,2470.624,2023-1-03T20:02:42Z
2023-01-03T17:59:38Z,42.805,6.029,13.3036,4.60122,2470.577,2023-1-03T20:05:45Z
2023-01-03T18:02:41Z,42.805,6.029,13.3026,4.60121,2470.6,2023-1-03T20:08:49Z
2023-01-03T18:05:44Z,42.805,6.029,13.3043,4.60115,2470.591,2023-1-03T20:11:52Z
2023-01-03T18:08:47Z,42.805,6.029,13.3036,4.60113,2470.577,2023-1-03T20:14:55Z
2023-01-03T18:11:51Z,42.805,6.029,13.3029,4.60099,2470.6,2023-1-03T20:17:58Z
2023-01-03T18:14:54Z,42.805,6.029,13.3026,4.60104,2470.6,2023-1-03T20:21:01Z
2023-01-03T18:17:57Z,42.805,6.029,13.3031,4.60108,2470.6,2023-1-03T20:24:04Z
2023-01-03T18:21:00Z,42.805,6.029,13.3029,4.60094,2470.577,2023-1-03T20:27:07Z
2023-01-03T18:24:03Z,42.805,6.029,13.3038,4.60102,2470.577,2023-1-03T20:30:10Z
2023-01-03T18:27:06Z,42.805,6.029,13.3044,4.60098,2470.591,2023-1-03T20:33:13Z
2023-01-03T18:30:09Z,42.805,6.029,13.3031,4.60104,2470.577,2023-1-03T20:36:16Z
2023-01-03T18:33:12Z,42.805,6.029,13.3021,4.60092,2470.6,2023-1-03T20:39:19Z
2023-01-03T18:36:15Z,42.805,6.029,13.3031,4.60118,2470.591,2023-1-03T20:42:23Z
2023-01-03T18:39:18Z,42.805,6.029,13.3050,4.60121,2470.577,2023-1-03T20:45:26Z
2023-01-03T18:42:21Z,42.805,6.029,13.3031,4.60123,2470.614,2023-1-03T20:48:29Z
2023-01-03T18:45:24Z,42.805,6.029,13.3029,4.60097,2470.553,2023-1-03T20:51:32Z
2023-01-03T18:48:28Z,42.805,6.029,13.3024,4.60090,2470.591,2023-1-03T20:54:35Z
2023-01-03T18:51:31Z,42.805,6.029,13.3021,4.60080,2470.591,2023-1-03T20:57:38Z
2023-01-03T18:54:34Z,42.805,6.029,13.3024,4.60084,2470.577,2023-1-03T21:00:41Z
2023-01-03T18:57:37Z,42.805,6.029,13.3028,4.60094,2470.591,2023-1-03T21:03:44Z
2023-01-03T19:00:40Z,42.805,6.029,13.3024,4.60099,2470.591,2023-1-03T21:06:47Z
2023-01-03T19:03:43Z,42.805,6.029,13.3027,4.60102,2470.591,2023-1-03T21:09:50Z
2023-01-03T19:06:46Z,42.805,6.029,13.3028,4.60097,2470.567,2023-1-03T21:12:53Z
2023-01-03T19:09:49Z,42.805,6.029,13.3025,4.60098,2470.577,2023-1-03T21:15:57Z
2023-01-03T19:12:52Z,42.805,6.029,13.3030,4.60092,2470.553,2023-1-03T21:19:00Z
2023-01-03T19:15:55Z,42.805,6.029,13.3031,4.60107,2470.591,2023-1-03T21:22:03Z
2023-01-03T19:18:58Z,42.805,6.029,13.3029,4.60109,2470.577,2023-1-03T21:25:06Z
2023-01-03T19:22:02Z,42.805,6.029,13.3021,4.60087,2470.591,2023-1-03T21:28:09Z
2023-01-03T19:25:05Z,42.805,6.029,13.3017,4.60098,2470.553,2023-1-03T21:31:12Z
2023-01-03T19:28:08Z,42.805,6.029,13.3026,4.60094,2470.567,2023-1-03T21:34:15Z
2023-01-03T19:31:11Z,42.805,6.029,13.3025,4.60083,2470.553,2023-1-03T21:37:18Z
2023-01-03T19:34:14Z,42.805,6.029,13.3028,4.60104,2470.553,2023-1-03T21:40:21Z
2023-01-03T19:37:17Z,42.805,6.029,13.3039,4.60114,2470.567,2023-1-03T21:43:24Z
2023-01-03T19:40:20Z,42.805,6.029,13.3028,4.60095,2470.577,2023-1-03T21:46:27Z
2023-01-03T19:43:23Z,42.805,6.029,13.3024,4.60088,2470.553,2023-1-03T21:49:31Z
2023-01-03T19:46:26Z,42.805,6.029,13.3023,4.60092,2470.553,2023-1-03T21:52:34Z
2023-01-03T19:49:29Z,42.805,6.029,13.3022,4.60096,2470.567,2023-1-03T21:55:37Z
2023-01-03T19:52:32Z,42.805,6.029,13.3027,4.60093,2470.553,2023-1-03T21:58:40Z
2023-01-03T19:55:35Z,42.805,6.029,13.3032,4.60092,2470.544,2023-1-03T22:01:43Z
2023-01-03T19:58:39Z,42.805,6.029,13.3032,4.60112,2470.53,2023-1-03T22:04:46Z
2023-01-03T20:01:42Z,42.805,6.029,13.3029,4.60096,2470.553,2023-1-03T22:07:49Z
2023-01-03T20:04:45Z,42.805,6.029,13.3025,4.60086,2470.53,2023-1-03T22:10:52Z
2023-01-03T20:07:48Z,42.805,6.029,13.3036,4.60100,2470.567,2023-1-03T22:13:55Z
2023-01-03T20:10:51Z,42.805,6.029,13.3024,4.60089,2470.553,2023-1-03T22:16:58Z
2023-01-03T20:13:54Z,42.805,6.029,13.3028,4.60084,2470.544,2023-1-03T22:20:01Z
2023-01-03T20:16:57Z,42.805,6.029,13.3021,4.60087,2470.544,2023-1-03T22:23:04Z
2023-01-03T20:20:00Z,42.805,6.029,13.3024,4.60092,2470.53,2023-1-03T22:26:08Z
2023-01-03T20:23:03Z,42.805,6.029,13.3040,4.60103,2470.53,2023-1-03T22:29:11Z
2023-01-03T20:26:06Z,42.805,6.029,13.3021,4.60094,2470.483,2023-1-03T22:32:14Z
2023-01-03T20:29:09Z,42.805,6.029,13.3027,4.60103,2470.567,2023-1-03T22:35:17Z
2023-01-03T20:32:13Z,42.805,6.029,13.3032,4.60115,2470.544,2023-1-03T22:38:20Z
2023-01-03T20:35:16Z,42.805,6.029,13.3027,4.60112,2470.507,2023-1-03T22:41:23Z
2023-01-03T20:38:19Z,42.805,6.029,13.3029,4.60093,2470.507,2023-1-03T22:44:26Z
2023-01-03T20:41:22Z,42.805,6.029,13.3023,4.60092,2470.567,2023-1-03T22:47:29Z
2023-01-03T20:44:25Z,42.805,6.029,13.3019,4.60097,2470.544,2023-1-03T22:50:32Z
2023-01-03T20:47:28Z,42.805,6.029,13.3039,4.60114,2470.53,2023-1-03T22:53:35Z
2023-01-03T20:50:31Z,42.805,6.029,13.3029,4.60089,2470.507,2023-1-03T22:56:38Z
2023-01-03T20:53:34Z,42.805,6.029,13.3034,4.60108,2470.544,2023-1-03T22:59:42Z
2023-01-03T20:56:37Z,42.805,6.029,13.3046,4.60122,2470.507,2023-1-03T23:02:45Z
2023-01-03T20:59:40Z,42.805,6.029,13.3023,4.60108,2470.53,2023-1-03T23:05:48Z
2023-01-03T21:02:43Z,42.805,6.029,13.3026,4.60087,2470.507,2023-1-03T23:08:51Z
2023-01-03T21:05:46Z,42.805,6.029,13.3034,4.60116,2470.507,2023-1-03T23:11:54Z
2023-01-03T21:08:50Z,42.805,6.029,13.3031,4.60132,2470.507,2023-1-03T23:14:57Z
2023-01-03T21:11:53Z,42.805,6.029,13.3046,4.60132,2470.544,2023-1-03T23:18:00Z
2023-01-03T21:14:56Z,42.805,6.029,13.3056,4.60119,2470.507,2023-1-03T23:21:03Z
2023-01-03T21:17:59Z,42.805,6.029,13.3028,4.60101,2470.507,2023-1-03T23:24:06Z
2023-01-03T21:21:02Z,42.805,6.029,13.3027,4.60110,2470.544,2023-1-03T23:27:09Z
2023-01-03T21:24:05Z,42.805,6.029,13.3036,4.60121,2470.483,2023-1-03T23:30:12Z
2023-01-03T21:27:08Z,42.805,6.029,13.3026,4.60122,2470.52,2023-1-03T23:33:16Z
2023-01-03T21:30:11Z,42.805,6.029,13.3045,4.60110,2470.507,2023-1-03T23:36:19Z
2023-01-03T21:33:14Z,42.805,6.029,13.3030,4.60092,2470.53,2023-1-03T23:39:22Z
2023-01-03T21:36:17Z,42.805,6.029,13.3033,4.60112,2470.483,2023-1-03T23:42:25Z
2023-01-03T21:39:20Z,42.805,6.029,13.3036,4.60110,2470.483,2023-1-03T23:45:28Z
2023-01-03T21:42:24Z,42.805,6.029,13.3040,4.60118,2470.507,2023-1-03T23:48:31Z
2023-01-03T21:45:27Z,42.805,6.029,13.3039,4.60151,2470.544,2023-1-03T23:51:34Z
2023-01-03T21:48:30Z,42.805,6.029,13.3030,4.60111,2470.483,2023-1-03T23:54:37Z
2023-01-03T21:51:33Z,42.805,6.029,13.3024,4.60106,2470.52,2023-1-03T23:57:40Z
2023-01-03T21:54:36Z,42.805,6.029,13.3031,4.60130,2470.483,2023-1-04T00:00:43Z
2023-01-03T21:57:39Z,42.805,6.029,13.3047,4.60110,2470.483,2023-1-04T00:03:46Z
2023-01-03T22:00:42Z,42.805,6.029,13.3046,4.60117,2470.483,2023-1-04T00:06:49Z
2023-01-03T22:03:45Z,42.805,6.029,13.3059,4.60142,2470.52,2023-1-04T00:09:53Z
2023-01-03T22:06:48Z,42.805,6.029,13.3036,4.60145,2470.52,2023-1-04T00:12:56Z
2023-01-03T22:09:51Z,42.805,6.029,13.3049,4.60139,2470.507,2023-1-04T00:15:59Z
2023-01-03T22:12:54Z,42.805,6.029,13.3040,4.60132,2470.497,2023-1-04T00:19:02Z
2023-01-03T22:15:57Z,42.805,6.029,13.3024,4.60102,2470.497,2023-1-04T00:22:05Z
2023-01-03T22:19:01Z,42.805,6.029,13.3036,4.60125,2470.474,2023-1-04T00:25:08Z
2023-01-03T22:22:04Z,42.805,6.029,13.3043,4.60132,2470.497,2023-1-04T00:28:11Z
2023-01-03T22:25:07Z,42.805,6.029,13.3048,4.60130,2470.497,2023-1-04T00:31:14Z
2023-01-03T22:28:10Z,42.805,6.029,13.3042,4.60108,2470.507,2023-1-04T00:34:17Z
2023-01-03T22:31:13Z,42.805,6.029,13.3045,4.60138,2470.483,2023-1-04T00:37:20Z
2023-01-03T22:34:16Z,42.805,6.029,13.3036,4.60120,2470.483,2023-1-04T00:40:23Z
2023-01-03T22:37:19Z,42.805,6.029,13.3054,4.60129,2470.483,2023-1-04T00:43:27Z
2023-01-03T22:40:22Z,42.805,6.029,13.3022,4.60100,2470.483,2023-1-04T00:46:30Z
2023-01-03T22:43:25Z,42.805,6.029,13.3027,4.60094,2470.483,2023-1-04T00:49:33Z
2023-01-03T22:46:28Z,42.805,6.029,13.3029,4.60098,2470.507,2023-1-04T00:52:36Z
2023-01-03T22:49:31Z,42.805,6.029,13.3025,4.60101,2470.483,2023-1-04T00:55:39Z
2023-01-03T22:52:34Z,42.805,6.029,13.3034,4.60137,2470.497,2023-1-04T00:58:42Z
2023-01-03T22:55:38Z,42.805,6.029,13.3043,4.60135,2470.483,2023-1-04T01:01:45Z
2023-01-03T22:58:41Z,42.805,6.029,13.3036,4.60145,2470.46,2023-1-04T01:04:48Z
2023-01-03T23:01:44Z,42.805,6.029,13.3034,4.60120,2470.483,2023-1-04T01:07:51Z
2023-01-03T23:04:47Z,42.805,6.029,13.3036,4.60127,2470.52,2023-1-04T01:10:54Z
2023-01-03T23:07:50Z,42.805,6.029,13.3029,4.60124,2470.46,2023-1-04T01:13:57Z
2023-01-03T23:10:53Z,42.805,6.029,13.3044,4.60123,2470.507,2023-1-04T01:17:00Z
2023-01-03T23:13:56Z,42.805,6.029,13.3046,4.60110,2470.474,2023-1-04T01:20:04Z
2023-01-03T23:16:59Z,42.805,6.029,13.3039,4.60129,2470.46,2023-1-04T01:23:07Z
2023-01-03T23:20:02Z,42.805,6.029,13.3040,4.60127,2470.483,2023-1-04T01:26:10Z
2023-01-03T23:23:05Z,42.805,6.029,13.3032,4.60117,2470.46,2023-1-04T01:29:13Z
2023-01-03T23:26:08Z,42.805,6.029,13.3041,4.60111,2470.497,2023-1-04T01:32:16Z
2023-01-03T23:29:11Z,42.805,6.029,13.3058,4.60135,2470.46,2023-1-04T01:35:19Z
2023-01-03T23:32:14Z,42.805,6.029,13.3038,4.60129,2470.507,2023-1-04T01:38:22Z
2023-01-03T23:35:18Z,42.805,6.029,13.3023,4.60119,2470.474,2023-1-04T01:41:25Z
2023-01-03T23:38:21Z,42.805,6.029,13.3029,4.60122,2470.507,2023-1-04T01:44:28Z
2023-01-03T23:41:24Z,42.805,6.029,13.3038,4.60134,2470.474,2023-1-04T01:47:31Z
2023-01-03T23:44:27Z,42.805,6.029,13.3031,4.60114,2470.52,2023-1-04T01:50:34Z
2023-01-03T23:47:30Z,42.805,6.029,13.3029,4.60146,2470.497,2023-1-04T01:53:37Z
2023-01-03T23:50:33Z,42.805,6.029,13.3030,4.60110,2470.46,2023-1-04T01:56:41Z
2023-01-03T23:53:36Z,42.805,6.029,13.3028,4.60127,2470.497,2023-1-04T01:59:44Z
2023-01-03T23:56:39Z,42.805,6.029,13.3036,4.60125,2470.52,2023-1-04T02:02:47Z
2023-01-03T23:59:42Z,42.805,6.029,13.3034,4.60120,2470.497,2023-1-04T02:05:50Z
